User: anonymous   Login
Location: Blachownia
(50.7807°N, 18.9578°E)
Time: 01:07:53
(UTC+01:00)
Language:

ISS - Orbit

View from above orbital plane
View from above orbital plane
View from above satellite
View from above satellite

Ground track
Ground track

The orbit data is extracted from the following two-line orbital elements,

1 25544U 98067A   19320.65868268  .00016717  00000-0  10270-3 0  9045
2 25544  51.6404 325.3298 0006558 289.2362  70.8078 15.50006596 38907
Epoch (UTC): 16 November 2019 15:48:30
Eccentricity: 0.0006558
inclination: 51.6404°
perigee height: 412 km
apogee height: 421 km
right ascension of ascending node: 325.3298°
argument of perigee: 289.2362°
revolutions per day: 15.50006596
mean anomaly at epoch: 70.8078°
orbit number at epoch: 3890

The dashed part of the orbit path shows where the satellite is in the earth's shadow,  

DLR